Date,TemperatureHighF,TemperatureAvgF,TemperatureLowF,DewpointHighF,DewpointAvgF,DewpointLowF,HumidityHigh,HumidityAvg,HumidityLow,PressureMaxIn,PressureMinIn,WindSpeedMaxMPH,WindSpeedAvgMPH,GustSpeedMaxMPH,PrecipitationSumIn
2013-2-1,73.0,54.4,38.0,46.0,39.3,35.0,92,61,26,0.00,40.00,6,3,15,0.01
2013-2-2,78.0,58.9,41.0,54.0,44.0,38.0,96,64,32,0.00,40.00,5,2,15,0.00
2013-2-3,76.0,58.5,44.0,47.0,39.6,30.0,96,61,19,0.00,40.00,5,2,12,0.00
2013-2-4,76.0,57.0,36.0,54.0,42.6,28.0,96,68,19,0.00,40.00,4,1,10,0.00
2013-2-5,82.0,61.1,42.0,59.0,50.2,41.0,96,72,39,0.00,40.00,4,1,11,0.00
2013-2-6,85.0,67.3,51.0,64.0,57.6,50.0,97,75,42,0.00,40.00,3,1,9,0.00
2013-2-7,84.0,67.1,55.0,68.0,58.3,54.0,97,78,43,0.00,40.00,6,2,13,0.00
2013-2-8,85.0,69.9,57.0,70.0,61.3,51.0,97,77,31,0.00,40.00,5,3,17,0.00
2013-2-9,82.0,66.5,53.0,63.0,58.5,52.0,97,78,48,0.00,40.00,5,3,13,0.00
2013-2-10,85.0,70.6,57.0,61.0,59.3,56.0,95,71,40,0.00,40.00,6,3,14,0.00
2013-2-11,81.0,67.0,55.0,68.0,61.0,54.0,97,83,55,0.00,40.00,5,2,12,0.00
2013-2-12,84.0,66.3,54.0,68.0,61.1,53.0,97,86,58,0.00,40.00,6,2,15,0.00
2013-2-13,85.0,71.3,59.0,71.0,65.4,58.0,98,84,55,0.00,40.00,7,3,21,0.00
2013-2-14,79.0,66.1,59.0,71.0,63.4,56.0,97,91,71,0.00,40.00,7,4,28,1.66
2013-2-15,66.0,62.5,59.0,64.0,60.9,56.0,97,94,90,0.00,40.00,3,1,9,0.22
2013-2-16,71.0,62.9,50.0,61.0,53.7,47.0,97,75,45,0.00,40.00,8,3,19,0.01
2013-2-17,60.0,48.8,34.0,47.0,30.4,21.0,95,56,23,0.00,40.00,7,3,16,0.01
2013-2-18,72.0,49.4,32.0,51.0,39.7,30.0,95,74,36,0.00,40.00,6,2,18,0.00
2013-2-19,81.0,61.2,46.0,63.0,54.3,45.0,97,81,50,0.00,40.00,5,1,12,0.00
2013-2-20,83.0,65.6,53.0,65.0,56.3,52.0,97,77,39,0.00,40.00,4,1,9,0.00
2013-2-21,85.0,67.1,56.0,67.0,60.3,55.0,97,82,48,0.00,40.00,5,2,11,0.00
2013-2-22,87.0,69.4,55.0,72.0,62.6,54.0,97,82,51,0.00,40.00,6,2,14,0.00
2013-2-23,84.0,72.1,62.0,73.0,66.9,61.0,98,85,62,0.00,40.00,7,2,18,0.00
2013-2-24,87.0,73.7,63.0,74.0,65.9,62.0,98,80,46,0.00,40.00,6,2,13,0.00
2013-2-25,85.0,71.3,60.0,73.0,65.9,59.0,98,85,55,0.00,40.00,6,2,14,0.00
2013-2-26,85.0,75.1,68.0,72.0,69.7,67.0,97,84,63,0.00,40.00,10,4,25,0.00
2013-2-27,73.0,67.1,62.0,70.0,63.6,61.0,97,89,69,0.00,40.00,4,1,8,0.20
2013-2-28,74.0,62.8,58.0,61.0,56.1,48.0,97,81,40,0.00,40.00,3,2,9,0.14